Location: Zagreb
(45.8000°N, 16.0000°E)
Time: 00:48:49
(UTC+02:00)

Transit 2A Rocket - All Passes

Search period start: 02 October 2020 00:00
Search period end: 12 October 2020 00:00
Orbit: 585 x 918 km, 66.7° (Epoch: 01 October)

Date Brightness Start Highest point End Pass type
(mag) Time Alt. Az. Time Alt. Az. Time Alt. Az.
02 Oct - 01:18:20 10° NNW 01:23:55 62° NE 01:28:58 10° SE visible
02 Oct - 03:01:58 10° WNW 03:05:58 21° WSW 03:09:42 10° SSW night (unlit)
02 Oct - 15:54:26 10° S 15:59:42 31° ESE 16:04:58 10° NE daylight
02 Oct - 17:36:07 10° SW 17:42:06 55° NW 17:48:04 10° NNE daylight
02 Oct - 19:22:12 10° WNW 19:26:04 17° NNW 19:29:53 10° N visible
02 Oct - 22:54:13 10° N 22:56:50 13° NNE 22:59:23 10° NE visible
03 Oct - 00:35:51 10° NNW 00:41:10 40° NE 00:46:00 10° ESE visible
03 Oct - 02:18:45 10° NW 02:23:42 36° WSW 02:28:14 10° S night (unlit)
03 Oct - 15:13:15 10° SSE 15:17:26 20° ESE 15:21:37 10° ENE daylight
03 Oct - 16:53:17 10° SW 16:59:25 82° WNW 17:05:31 10° NNE daylight
03 Oct - 18:38:15 10° W 18:42:58 22° NW 18:47:35 10° NNE daylight
03 Oct - 22:12:19 10° N 22:13:32 11° NNE 22:14:45 10° NNE visible
03 Oct - 23:53:26 10° NNW 23:58:15 28° NE 00:02:43 10° E visible
04 Oct - 01:35:52 10° NW 01:41:19 60° WSW 01:46:14 10° SSE visible
04 Oct - 14:33:28 10° ESE 14:35:17 11° E 14:37:05 10° E daylight
04 Oct - 16:10:49 10° SSW 16:16:51 66° ESE 16:22:52 10° NE daylight
04 Oct - 17:54:36 10° WSW 17:59:58 30° NW 18:05:14 10° NNE daylight
04 Oct - 19:42:38 10° NW 19:44:36 11° NNW 19:46:32 10° N visible
04 Oct - 23:11:05 10° NNW 23:15:14 20° NNE 23:19:07 10° E visible
05 Oct - 00:53:12 10° NNW 00:58:48 84° ENE 01:03:49 10° SE visible
05 Oct - 02:37:37 10° WNW 02:40:29 15° WSW 02:43:13 10° SW night (unlit)
05 Oct - 15:28:43 10° S 15:34:24 42° ESE 15:40:04 10° NE daylight
05 Oct - 17:11:17 10° WSW 17:17:05 43° NW 17:22:49 10° NNE daylight
05 Oct - 18:58:07 10° WNW 19:01:19 14° NNW 19:04:27 10° N visible
05 Oct - 22:28:49 10° N 22:32:05 15° NNE 22:35:12 10° ENE visible
06 Oct - 00:10:38 10° NNW 00:16:07 53° NE 00:21:04 10° SE visible
06 Oct - 01:53:57 10° NW 01:58:19 25° WSW 02:02:21 10° SSW night (unlit)
06 Oct - 14:47:06 10° SSE 14:52:03 27° ESE 14:57:01 10° NE daylight
06 Oct - 16:28:14 10° SW 16:34:19 64° NW 16:40:20 10° NNE daylight
06 Oct - 18:13:58 10° WNW 18:18:08 19° NNW 18:22:13 10° NNE daylight
06 Oct - 21:46:43 10° N 21:48:50 12° NNE 21:50:54 10° NE visible
06 Oct - 23:28:10 10° NNW 23:33:17 35° NE 23:37:59 10° ESE visible
07 Oct - 01:10:54 10° NW 01:16:01 42° WSW 01:20:40 10° S night (unlit)
07 Oct - 14:06:13 10° SE 14:09:49 16° ESE 14:13:26 10° ENE daylight
07 Oct - 15:45:33 10° SSW 15:51:40 86° ESE 15:57:46 10° NE daylight
07 Oct - 17:30:07 10° W 17:35:03 25° NW 17:39:54 10° NNE daylight
07 Oct - 19:19:20 10° NNW 19:19:55 10° NNW 19:20:30 10° N visible
07 Oct - 22:45:47 10° NNW 22:50:21 24° NE 22:54:35 10° E visible
08 Oct - 00:28:05 10° NW 00:33:35 72° WSW 00:38:31 10° SSE visible
08 Oct - 15:03:11 10° SSW 15:09:08 57° ESE 15:15:04 10° NE daylight
08 Oct - 16:46:35 10° WSW 16:52:06 34° NW 16:57:32 10° NNE daylight
08 Oct - 18:34:12 10° NW 18:36:36 12° NNW 18:38:57 10° N daylight
08 Oct - 22:03:28 10° N 22:07:17 18° NNE 22:10:53 10° ENE visible
08 Oct - 23:45:28 10° NNW 23:51:00 71° NE 23:55:59 10° SE visible
09 Oct - 01:29:25 10° WNW 01:32:52 18° WSW 01:36:08 10° SW night (unlit)
09 Oct - 14:21:15 10° S 14:26:43 36° ESE 14:32:11 10° NE daylight
09 Oct - 16:03:20 10° SW 16:09:16 49° NW 16:15:06 10° NNE daylight
09 Oct - 17:49:48 10° WNW 17:53:21 16° NNW 17:56:48 10° N daylight
09 Oct - 21:21:16 10° N 21:24:06 14° NNE 21:26:49 10° NE visible
09 Oct - 23:02:56 10° NNW 23:08:17 45° NE 23:13:07 10° ESE visible
10 Oct - 00:46:02 10° NW 00:50:40 30° WSW 00:54:55 10° S night (unlit)
10 Oct - 13:39:50 10° SSE 13:44:25 23° ESE 13:49:00 10° ENE daylight
10 Oct - 15:20:25 10° SW 15:26:33 73° NW 15:32:35 10° NNE daylight
10 Oct - 17:05:45 10° W 17:10:12 20° NW 17:14:32 10° NNE daylight
10 Oct - 20:39:19 10° N 20:40:50 11° NNE 20:42:18 10° NNE visible
10 Oct - 22:20:31 10° NNW 22:25:25 30° NE 22:29:55 10° ESE visible
11 Oct - 00:03:04 10° NW 00:08:19 51° WSW 00:13:03 10° S visible
11 Oct - 12:59:23 10° SE 13:02:14 14° ESE 13:05:03 10° ENE daylight
11 Oct - 14:37:50 10° SSW 14:43:56 75° ESE 14:49:59 10° NE daylight
11 Oct - 16:22:01 10° W 16:27:10 28° NW 16:32:13 10° NNE daylight
11 Oct - 18:10:35 10° NNW 18:11:54 11° NNW 18:13:12 10° N daylight
11 Oct - 21:38:09 10° NNW 21:42:25 22° NE 21:46:25 10° E visible
11 Oct - 23:20:20 10° NW 23:25:50 85° WSW 23:30:45 10° SSE visible
